Preview of NWS' New Version of Forecast
This preview is not operational and should not be used for support decisions.

Regional Weather Roundup (RWR)

Issued by Philadelphia/Mt Holly (PHI)

                            
000
ASUS41 KPHI 182112
RWRPHI

REGIONAL WEATHER ROUNDUP
NATIONAL WEATHER SERVICE MOUNT HOLLY NJ
500 PM EDT WED SEP 18 2019

NOTE:  "FAIR" INDICATES FEW OR NO CLOUDS BELOW 12,000 FEET WITH NO
SIGNIFICANT WEATHER AND/OR OBSTRUCTIONS TO VISIBILITY.

 * = STATION DOES NOT REPORT PRECIPITATION (E.G. RAIN, SNOW, ETC.) 
        OR FOG.

NJZ015>026-182200-
SOUTHERN NEW JERSEY
  
CITY           SKY/WX    TMP DP  RH WIND       PRES   REMARKS
POMONA         FAIR      68  52  56 NE14      30.22R                  
WILDWOOD*      FAIR      69  53  56 NE21G29   30.21R                  
MILLVILLE      FAIR      72  47  40 NE14      30.20S                  
WRIGHTSTOWN    FAIR      70  49  45 E12       30.21F                  
MOUNT HOLLY    FAIR      71  48  43 NE5       30.21S                  
TRENTON        FAIR      70  48  45 NE9       30.21F                  

$$
NJZ001>014-182200-
NORTHERN NEW JERSEY
  
CITY           SKY/WX    TMP DP  RH WIND       PRES   REMARKS
SUSSEX         FAIR      70  46  42 NE10G17   30.24S                  
ANDOVER*         N/A     69  45  41 VRB7      30.24F                  
MORRISTOWN     MOSUNNY   68  52  56 NE8G17    30.24S                  
NEWARK         FAIR      69  47  45 NE13      30.24R                  
TETERBORO      FAIR      69  48  47 E9        30.23S                  
CALDWELL       FAIR      71  50  47 E10       30.24S                  
SOMERVILLE     FAIR      73  45  36 NE12      30.21S                  
ALLAIRE*       PTSUNNY   67  48  50 NE13      30.25S                  
TOMS RIVER*    FAIR      66  52  60 E13G18    30.24S                  

$$
PAZ043-044-047-054-055-060>062-066>071-182200-
EASTERN PENNSYLVANIA
  
CITY           SKY/WX    TMP DP  RH WIND       PRES   REMARKS
PHILADELPHIA   FAIR      73  45  36 NE7       30.21S                  
NORTH PHILA    FAIR      74  48  39 NE13      30.22F                  
BLUE BELL*     FAIR      71  48  43 NE3       30.22S                  
DOYLESTOWN     FAIR      74  47  38 NE7       30.21F                  
QUAKERTOWN*    SUNNY     72  48  43 NE5       30.23S                  
PERKASIE*      FAIR      70  48  46 E5        30.23F                  
POTTSTOWN      FAIR      71  48  43 VRB5      30.23S                  
LANCASTER      FAIR      75  46  35 NE10      30.21S                  
COATESVILLE    FAIR      70  48  46 VRB3      30.23S                  
WEST CHESTER   FAIR      72  45  37 NE8       30.21S                  
READING        FAIR      72  48  42 VRB5      30.20F                  
ALLENTOWN      FAIR      74  46  36 E6        30.22F                  
QN CITY/ALNTWN FAIR      72  46  40 NE7       30.23F                  
MOUNT POCONO   FAIR      67  41  38 N8        30.25S                  
HAZLETON       FAIR      70  41  35 N7        30.27S                  
LEHIGHTON      FAIR      73  46  38 SE3       30.22F                  
WILKES BARRE   FAIR      75  40  28 NE10      30.22S                  

$$
DEZALL-MDZ008-012-015-019-020-182200-
DELAWARE AND EASTERN MARYLAND
  
CITY           SKY/WX    TMP DP  RH WIND       PRES   REMARKS
WILMINGTON     FAIR      75  50  41 E10       30.20S                  
DOVER          FAIR      71  53  52 E6        30.19S                  
CHESWOLD       MOCLDY    72  54  53 E7        30.19S                  
GEORGETOWN     NOT AVBL                                               
EASTON         MOSUNNY   75  50  41 N10       30.22R                  
STEVENSVILLE   FAIR      75  52  43 N8        30.19S                  
ABERDEEN       MOSUNNY   73  50  43 E7        30.19                   
PATUXENT       PTSUNNY   74  53  48 N10       30.18R                  
OCEAN CITY     PTSUNNY   68  54  60 NE14G22   30.19S                  
WALLOPS ISLAND PTSUNNY   70  53  54 NE17      30.18S                  
CAMBRIDGE      MOSUNNY   73  54  49 E6G13     30.18S                  
SALISBURY      FAIR      71  51  49 NE14      30.18S                  

$$
PAZ001-021-NYZ056-072-MDZ011-DCZ001-182200-
OTHER NEARBY LOCATIONS
  
CITY           SKY/WX    TMP DP  RH WIND       PRES   REMARKS
HARRISBURG     FAIR      75  45  34 VRB5      30.20S                  
STATE COLLEGE  SUNNY     72  41  33 N7        30.24S                  
WILLIAMSPORT   FAIR      73  40  30 E7        30.21S                  
BINGHAMTON     FAIR      68  41  37 NE10      30.26S                  
NEW YORK CITY  FAIR      67  47  48 E7        30.27S                  
BALTIMORE      FAIR      77  51  40 E12       30.18F                  
WASHINGTON DC  PTSUNNY   78  48  34 NE7       30.18F                  

$$